| time (UTC) | temp C | wind direction | speed KPH | gust KPH | rain 1hr cm | rain 24hr cm | rain mn cm | humidity % | barometer mb |
| 20260509065328 | 14 | 178 | 6.4 | 12.9 | 0.00 | 0.00 | 0.00 | 52 | 1010.0 |
| 20260509064819 | 14 | 175 | 8.0 | 11.3 | 0.00 | 0.00 | 0.00 | 52 | 1010.1 |
| 20260509064332 | 14 | 166 | 6.4 | 11.3 | 0.00 | 0.00 | 0.00 | 52 | 1010.0 |
| 20260509063828 | 14 | 171 | 6.4 | 12.9 | 0.00 | 0.00 | 0.00 | 53 | 1010.1 |
| 20260509063320 | 14 | 161 | 8.0 | 11.3 | 0.00 | 0.00 | 0.00 | 53 | 1010.1 |
| 20260509062832 | 13 | 165 | 8.0 | 12.9 | 0.00 | 0.00 | 0.00 | 54 | 1010.2 |
| 20260509062322 | 13 | 167 | 4.8 | 11.3 | 0.00 | 0.00 | 0.00 | 55 | 1010.3 |
| 20260509061813 | 13 | 175 | 3.2 | 11.3 | 0.00 | 0.00 | 0.00 | 54 | 1010.3 |
| 20260509061325 | 14 | 166 | 3.2 | 9.7 | 0.00 | 0.00 | 0.00 | 53 | 1010.2 |
| 20260509060836 | 14 | 176 | 4.8 | 9.7 | 0.00 | 0.00 | 0.00 | 53 | 1010.4 |
| 20260509060327 | 14 | 169 | 3.2 | 8.0 | 0.00 | 0.00 | 0.00 | 52 | 1010.5 |
| 20260509055817 | 14 | 162 | 3.2 | 8.0 | 0.00 | 0.00 | 0.00 | 52 | 1010.5 |
| 20260509055333 | 14 | 169 | 3.2 | 8.0 | 0.00 | 0.00 | 0.00 | 52 | 1010.5 |
| 20260509054825 | 14 | 197 | 3.2 | 8.0 | 0.00 | 0.00 | 0.00 | 52 | 1010.6 |
| 20260509054316 | 14 | 178 | 4.8 | 9.7 | 0.00 | 0.00 | 0.00 | 52 | 1010.6 |
| 20260509053829 | 14 | 167 | 6.4 | 12.9 | 0.00 | 0.00 | 0.00 | 53 | 1010.6 |
| 20260509053321 | 14 | 164 | 4.8 | 11.3 | 0.00 | 0.00 | 0.00 | 53 | 1010.5 |
| 20260509052832 | 13 | 172 | 6.4 | 11.3 | 0.00 | 0.00 | 0.00 | 53 | 1010.6 |
| 20260509052323 | 14 | 155 | 3.2 | 9.7 | 0.00 | 0.00 | 0.00 | 53 | 1010.6 |
| 20260509051815 | 14 | 119 | 1.6 | 8.0 | 0.00 | 0.00 | 0.00 | 53 | 1010.6 |
| 20260509051330 | 14 | 130 | 3.2 | 12.9 | 0.00 | 0.00 | 0.00 | 53 | 1010.6 |
| 20260509050823 | 14 | 142 | 4.8 | 12.9 | 0.00 | 0.00 | 0.00 | 52 | 1010.6 |
| 20260509050334 | 14 | 182 | 3.2 | 8.0 | 0.00 | 0.00 | 0.00 | 52 | 1010.6 |
| 20260509045823 | 15 | 173 | 3.2 | 9.7 | 0.00 | 0.00 | 0.00 | 52 | 1010.6 |
| 20260509045335 | 15 | 175 | 3.2 | 6.4 | 0.00 | 0.00 | 0.00 | 52 | 1010.4 |
| 20260509044826 | 15 | 155 | 3.2 | 6.4 | 0.00 | 0.00 | 0.00 | 52 | 1010.4 |
| 20260509044318 | 15 | 176 | 3.2 | 6.4 | 0.00 | 0.00 | 0.00 | 52 | 1010.4 |
| 20260509043830 | 15 | 175 | 3.2 | 8.0 | 0.00 | 0.00 | 0.00 | 52 | 1010.4 |
| 20260509043321 | 14 | 169 | 1.6 | 9.7 | 0.00 | 0.00 | 0.00 | 52 | 1010.4 |
| 20260509042853 | 14 | 178 | 4.8 | 9.7 | 0.00 | 0.00 | 0.00 | 53 | 1010.5 |
| 20260509042328 | 14 | 173 | 4.8 | 8.0 | 0.00 | 0.00 | 0.00 | 53 | 1010.5 |
| 20260509041840 | 14 | 165 | 3.2 | 6.4 | 0.00 | 0.00 | 0.00 | 53 | 1010.6 |
| 20260509041331 | 14 | 182 | 1.6 | 8.0 | 0.00 | 0.00 | 0.00 | 52 | 1010.6 |
| 20260509040822 | 15 | 167 | 3.2 | 6.4 | 0.00 | 0.00 | 0.00 | 51 | 1010.6 |
| 20260509040334 | 15 | 163 | 3.2 | 6.4 | 0.00 | 0.00 | 0.00 | 51 | 1010.5 |
| 20260509035823 | 15 | 173 | 3.2 | 8.0 | 0.00 | 0.00 | 0.00 | 51 | 1010.6 |
| 20260509035315 | 15 | 180 | 4.8 | 8.0 | 0.00 | 0.00 | 0.00 | 51 | 1010.5 |
| 20260509034826 | 15 | 169 | 6.4 | 9.7 | 0.00 | 0.00 | 0.00 | 50 | 1010.6 |
| 20260509034317 | 15 | 175 | 3.2 | 6.4 | 0.00 | 0.00 | 0.00 | 49 | 1010.6 |
| 20260509033829 | 15 | 173 | 4.8 | 8.0 | 0.00 | 0.00 | 0.00 | 49 | 1010.6 |
| 20260509033324 | 15 | 161 | 3.2 | 8.0 | 0.00 | 0.00 | 0.00 | 49 | 1010.6 |
| 20260509032816 | 15 | 171 | 1.6 | 6.4 | 0.00 | 0.00 | 0.00 | 49 | 1010.8 |
| 20260509032349 | 15 | 173 | 4.8 | 8.0 | 0.00 | 0.00 | 0.00 | 49 | 1010.9 |
| 20260509031818 | 15 | 165 | 6.4 | 8.0 | 0.00 | 0.00 | 0.00 | 49 | 1010.8 |
| 20260509031330 | 15 | 163 | 0.0 | 4.8 | 0.00 | 0.00 | 0.00 | 49 | 1010.7 |
| 20260509030842 | 15 | 163 | 1.6 | 4.8 | 0.00 | 0.00 | 0.00 | 49 | 1010.8 |
| 20260509030353 | 15 | 164 | 0.0 | 6.4 | 0.00 | 0.00 | 0.00 | 49 | 1010.8 |
| 20260509025822 | 15 | 161 | 0.0 | 3.2 | 0.00 | 0.00 | 0.00 | 51 | 1010.9 |
| 20260509025314 | 16 | 161 | 1.6 | 3.2 | 0.00 | 0.00 | 0.00 | 50 | 1011.1 |
| 20260509024826 | 16 | 161 | 0.0 | 3.2 | 0.00 | 0.00 | 0.00 | 46 | 1011.1 |
| 20260509024321 | 16 | 159 | 1.6 | 3.2 | 0.00 | 0.00 | 0.00 | 45 | 1011.0 |
| 20260509023813 | 16 | 159 | 0.0 | 1.6 | 0.00 | 0.00 | 0.00 | 48 | 1011.0 |
| 20260509023325 | 16 | 159 | 0.0 | 1.6 | 0.00 | 0.00 | 0.00 | 48 | 1011.1 |
| 20260509022817 | 16 | 159 | 0.0 | 1.6 | 0.00 | 0.00 | 0.00 | 46 | 1011.1 |
| 20260509022329 | 16 | 159 | 0.0 | 3.2 | 0.00 | 0.00 | 0.00 | 46 | 1011.1 |
| 20260509021821 | 16 | 159 | 0.0 | 3.2 | 0.00 | 0.00 | 0.00 | 45 | 1011.2 |
| 20260509021333 | 16 | 159 | 0.0 | 4.8 | 0.00 | 0.00 | 0.00 | 45 | 1011.1 |
| 20260509020824 | 16 | 162 | 1.6 | 8.0 | 0.00 | 0.00 | 0.00 | 45 | 1011.1 |
| 20260509020320 | 16 | 161 | 1.6 | 8.0 | 0.00 | 0.00 | 0.00 | 45 | 1011.1 |
| 20260509015850 | 16 | 157 | 1.6 | 3.2 | 0.00 | 0.00 | 0.00 | 46 | 1011.1 |
| 20260509015341 | 16 | 157 | 0.0 | 9.7 | 0.00 | 0.00 | 0.00 | 47 | 1011.0 |
| 20260509014832 | 16 | 157 | 3.2 | 9.7 | 0.00 | 0.00 | 0.00 | 47 | 1011.1 |
| 20260509014344 | 16 | 169 | 1.6 | 8.0 | 0.00 | 0.00 | 0.00 | 46 | 1011.1 |
| 20260509013815 | 15 | 164 | 3.2 | 8.0 | 0.00 | 0.00 | 0.00 | 46 | 1011.0 |
| 20260509013326 | 15 | 129 | 0.0 | 4.8 | 0.00 | 0.00 | 0.00 | 47 | 1011.0 |
| 20260509012818 | 15 | 69 | 0.0 | 4.8 | 0.00 | 0.00 | 0.00 | 47 | 1011.0 |
| 20260509012351 | 15 | 64 | 0.0 | 4.8 | 0.00 | 0.00 | 0.00 | 48 | 1011.0 |
| 20260509011822 | 15 | 75 | 0.0 | 3.2 | 0.00 | 0.00 | 0.00 | 48 | 1011.0 |
| 20260509011318 | 15 | 163 | 0.0 | 0.0 | 0.00 | 0.00 | 0.00 | 47 | 1010.9 |
| 20260509010830 | 16 | 163 | 0.0 | 4.8 | 0.00 | 0.00 | 0.00 | 47 | 1010.9 |
| 20260509010321 | 16 | 163 | 1.6 | 4.8 | 0.00 | 0.00 | 0.00 | 47 | 1010.9 |
| 20260509005851 | 16 | 141 | 0.0 | 3.2 | 0.00 | 0.00 | 0.00 | 46 | 1010.8 |
| 20260509005322 | 15 | 141 | 1.6 | 9.7 | 0.00 | 0.00 | 0.00 | 46 | 1010.9 |
| 20260509004814 | 15 | 142 | 0.0 | 0.0 | 0.00 | 0.00 | 0.00 | 45 | 1010.9 |
| 20260509004326 | 16 | 142 | 0.0 | 1.6 | 0.00 | 0.00 | 0.00 | 46 | 1010.9 |
| 20260509003818 | 16 | 142 | 0.0 | 1.6 | 0.00 | 0.00 | 0.00 | 46 | 1011.0 |
| 20260509003330 | 16 | 146 | 0.0 | 3.2 | 0.00 | 0.00 | 0.00 | 47 | 1011.0 |
| 20260509002825 | 16 | 145 | 0.0 | 11.3 | 0.00 | 0.00 | 0.00 | 47 | 1011.1 |
| 20260509002317 | 16 | 136 | 6.4 | 11.3 | 0.00 | 0.00 | 0.00 | 46 | 1010.9 |
| 20260509001829 | 16 | 20 | 0.0 | 0.0 | 0.00 | 0.00 | 0.00 | 44 | 1010.8 |
| 20260509001322 | 16 | 20 | 0.0 | 1.6 | 0.00 | 0.00 | 0.00 | 44 | 1010.7 |
| 20260509000814 | 16 | 20 | 0.0 | 1.6 | 0.00 | 0.00 | 0.00 | 43 | 1010.7 |
| 20260509000326 | 17 | 20 | 0.0 | 3.2 | 0.00 | 0.00 | 0.00 | 43 | 1010.7 |
| 20260508235815 | 17 | 20 | 0.0 | 1.6 | 0.00 | 0.00 | 0.00 | 43 | 1010.6 |
| 20260508235348 | 17 | 20 | 0.0 | 0.0 | 0.00 | 0.00 | 0.00 | 44 | 1010.6 |
| 20260508234818 | 17 | 20 | 0.0 | 0.0 | 0.00 | 0.00 | 0.00 | 43 | 1010.5 |
| 20260508234314 | 17 | 20 | 0.0 | 3.2 | 0.00 | 0.00 | 0.00 | 44 | 1010.5 |
| 20260508233826 | 17 | 20 | 0.0 | 3.2 | 0.00 | 0.00 | 0.00 | 44 | 1010.5 |
| 20260508233318 | 17 | 20 | 1.6 | 4.8 | 0.00 | 0.00 | 0.00 | 44 | 1010.5 |
| 20260508232830 | 17 | 16 | 1.6 | 8.0 | 0.00 | 0.00 | 0.00 | 43 | 1010.4 |
| 20260508232321 | 17 | 9 | 4.8 | 9.7 | 0.00 | 0.00 | 0.00 | 43 | 1010.3 |
| 20260508231813 | 18 | 9 | 3.2 | 8.0 | 0.00 | 0.00 | 0.00 | 45 | 1010.4 |
| 20260508231325 | 18 | 286 | 3.2 | 8.0 | 0.00 | 0.00 | 0.00 | 41 | 1010.4 |
| 20260508230816 | 18 | 291 | 1.6 | 6.4 | 0.00 | 0.00 | 0.00 | 39 | 1010.4 |
| 20260508230349 | 18 | 291 | 3.2 | 6.4 | 0.00 | 0.00 | 0.00 | 41 | 1010.3 |
| 20260508225822 | 18 | 313 | 0.0 | 11.3 | 0.00 | 0.00 | 0.00 | 39 | 1010.3 |
| 20260508225313 | 18 | 313 | 1.6 | 11.3 | 0.00 | 0.00 | 0.00 | 41 | 1010.3 |
| 20260508224825 | 18 | 304 | 3.2 | 11.3 | 0.00 | 0.00 | 0.00 | 42 | 1010.3 |
| 20260508224317 | 18 | 296 | 4.8 | 11.3 | 0.00 | 0.00 | 0.00 | 40 | 1010.3 |
| 20260508223829 | 18 | 272 | 1.6 | 12.9 | 0.00 | 0.00 | 0.00 | 40 | 1010.4 |
| 20260508223320 | 18 | 288 | 4.8 | 14.5 | 0.00 | 0.00 | 0.00 | 38 | 1010.4 |
| 20260508222852 | 18 | 288 | 9.7 | 14.5 | 0.00 | 0.00 | 0.00 | 39 | 1010.4 |
| 20260508222323 | 18 | 294 | 8.0 | 14.5 | 0.00 | 0.00 | 0.00 | 39 | 1010.4 |
| 20260508221818 | 18 | 270 | 8.0 | 14.5 | 0.00 | 0.00 | 0.00 | 38 | 1010.5 |
| 20260508221330 | 18 | 119 | 4.8 | 12.9 | 0.00 | 0.00 | 0.00 | 40 | 1010.5 |
| 20260508220843 | 18 | 152 | 3.2 | 12.9 | 0.00 | 0.00 | 0.00 | 43 | 1010.4 |
| 20260508220314 | 18 | 267 | 4.8 | 9.7 | 0.00 | 0.00 | 0.00 | 39 | 1010.4 |
| 20260508215824 | 18 | 313 | 3.2 | 11.3 | 0.00 | 0.00 | 0.00 | 40 | 1010.4 |
| 20260508215315 | 18 | 286 | 3.2 | 11.3 | 0.00 | 0.00 | 0.00 | 39 | 1010.4 |
| 20260508214827 | 18 | 48 | 1.6 | 11.3 | 0.00 | 0.00 | 0.00 | 41 | 1010.4 |
| 20260508214319 | 18 | 126 | 3.2 | 8.0 | 0.00 | 0.00 | 0.00 | 39 | 1010.5 |
| 20260508213831 | 18 | 146 | 4.8 | 14.5 | 0.00 | 0.00 | 0.00 | 38 | 1010.5 |
| 20260508213327 | 18 | 14 | 3.2 | 16.1 | 0.00 | 0.00 | 0.00 | 40 | 1010.5 |
| 20260508212819 | 18 | 313 | 8.0 | 17.7 | 0.00 | 0.00 | 0.00 | 40 | 1010.6 |
| 20260508212330 | 18 | 309 | 8.0 | 17.7 | 0.00 | 0.00 | 0.00 | 39 | 1010.6 |
| 20260508211822 | 18 | 22 | 3.2 | 8.0 | 0.00 | 0.00 | 0.00 | 39 | 1010.5 |
| 20260508211335 | 18 | 185 | 4.8 | 11.3 | 0.00 | 0.00 | 0.00 | 42 | 1010.6 |
| 20260508210826 | 18 | 109 | 1.6 | 12.9 | 0.00 | 0.00 | 0.00 | 41 | 1010.8 |
| 20260508210318 | 18 | 298 | 3.2 | 16.1 | 0.00 | 0.00 | 0.00 | 40 | 1010.8 |
| 20260508205848 | 18 | 298 | 6.4 | 16.1 | 0.00 | 0.00 | 0.00 | 38 | 1010.7 |
| 20260508205319 | 18 | 287 | 6.4 | 14.5 | 0.00 | 0.00 | 0.00 | 40 | 1010.7 |
| 20260508204814 | 18 | 293 | 6.4 | 14.5 | 0.00 | 0.00 | 0.00 | 39 | 1010.7 |
| 20260508204327 | 18 | 125 | 3.2 | 9.7 | 0.00 | 0.00 | 0.00 | 40 | 1010.8 |
| 20260508203839 | 18 | 284 | 4.8 | 12.9 | 0.00 | 0.00 | 0.00 | 41 | 1010.8 |
| 20260508203329 | 18 | 273 | 4.8 | 14.5 | 0.00 | 0.00 | 0.00 | 40 | 1010.9 |
| 20260508202821 | 18 | 313 | 4.8 | 19.3 | 0.00 | 0.00 | 0.00 | 37 | 1011.0 |
| 20260508202332 | 18 | 272 | 8.0 | 19.3 | 0.00 | 0.00 | 0.00 | 39 | 1011.0 |
| 20260508201825 | 18 | 260 | 8.0 | 17.7 | 0.00 | 0.00 | 0.00 | 35 | 1010.9 |
| 20260508201336 | 19 | 292 | 12.9 | 17.7 | 0.00 | 0.00 | 0.00 | 34 | 1011.0 |
| 20260508200828 | 19 | 227 | 8.0 | 17.7 | 0.00 | 0.00 | 0.00 | 36 | 1011.1 |
| 20260508200319 | 19 | 30 | 8.0 | 16.1 | 0.00 | 0.00 | 0.00 | 37 | 1011.0 |
| 20260508195835 | 18 | 84 | 4.8 | 22.5 | 0.00 | 0.00 | 0.00 | 37 | 1011.2 |
| 20260508195327 | 19 | 313 | 4.8 | 22.5 | 0.00 | 0.00 | 0.00 | 37 | 1011.3 |
| 20260508194819 | 18 | 309 | 8.0 | 17.7 | 0.00 | 0.00 | 0.00 | 38 | 1011.3 |
| 20260508194331 | 18 | 99 | 6.4 | 14.5 | 0.00 | 0.00 | 0.00 | 38 | 1011.3 |
| 20260508193822 | 18 | 153 | 6.4 | 14.5 | 0.00 | 0.00 | 0.00 | 38 | 1011.3 |
| 20260508193313 | 18 | 306 | 6.4 | 20.9 | 0.00 | 0.00 | 0.00 | 38 | 1011.3 |
| 20260508192827 | 18 | 305 | 6.4 | 24.1 | 0.00 | 0.00 | 0.00 | 36 | 1011.4 |
| 20260508192318 | 19 | 291 | 11.3 | 24.1 | 0.00 | 0.00 | 0.00 | 35 | 1011.4 |
| 20260508191813 | 19 | 271 | 4.8 | 19.3 | 0.00 | 0.00 | 0.00 | 35 | 1011.4 |
| 20260508191325 | 19 | 165 | 6.4 | 20.9 | 0.00 | 0.00 | 0.00 | 34 | 1011.6 |
| 20260508190816 | 20 | 309 | 9.7 | 20.9 | 0.00 | 0.00 | 0.00 | 33 | 1011.6 |
| 20260508190349 | 20 | 170 | 9.7 | 16.1 | 0.00 | 0.00 | 0.00 | 34 | 1011.8 |
| 20260508185839 | 20 | 168 | 8.0 | 24.1 | 0.00 | 0.00 | 0.00 | 34 | 1011.6 |
| 20260508185350 | 20 | 163 | 11.3 | 19.3 | 0.00 | 0.00 | 0.00 | 36 | 1011.7 |
| 20260508184821 | 20 | 146 | 9.7 | 17.7 | 0.00 | 0.00 | 0.00 | 35 | 1012.0 |
| 20260508184313 | 19 | 66 | 6.4 | 20.9 | 0.00 | 0.00 | 0.00 | 34 | 1012.0 |
| 20260508183824 | 19 | 294 | 8.0 | 20.9 | 0.00 | 0.00 | 0.00 | 37 | 1012.0 |
| 20260508183337 | 19 | 9 | 9.7 | 22.5 | 0.00 | 0.00 | 0.00 | 36 | 1012.0 |
| 20260508182828 | 19 | 281 | 8.0 | 22.5 | 0.00 | 0.00 | 0.00 | 40 | 1012.1 |
| 20260508182324 | 18 | 107 | 6.4 | 16.1 | 0.00 | 0.00 | 0.00 | 36 | 1012.1 |
| 20260508181816 | 18 | 140 | 8.0 | 17.7 | 0.00 | 0.00 | 0.00 | 38 | 1012.1 |
| 20260508181348 | 18 | 182 | 9.7 | 17.7 | 0.00 | 0.00 | 0.00 | 38 | 1012.2 |
| 20260508180818 | 18 | 184 | 8.0 | 17.7 | 0.00 | 0.00 | 0.00 | 37 | 1012.3 |
| 20260508180330 | 18 | 123 | 8.0 | 14.5 | 0.00 | 0.00 | 0.00 | 40 | 1012.4 |
| 20260508175822 | 17 | 144 | 6.4 | 14.5 | 0.00 | 0.00 | 0.00 | 40 | 1012.3 |
| 20260508175314 | 17 | 119 | 6.4 | 19.3 | 0.00 | 0.00 | 0.00 | 41 | 1012.3 |
| 20260508174826 | 17 | 146 | 6.4 | 19.3 | 0.00 | 0.00 | 0.00 | 36 | 1012.5 |
| 20260508174318 | 18 | 286 | 8.0 | 14.5 | 0.00 | 0.00 | 0.00 | 35 | 1012.7 |
| 20260508173813 | 17 | 124 | 6.4 | 14.5 | 0.00 | 0.00 | 0.00 | 40 | 1012.8 |
| 20260508173325 | 18 | 126 | 6.4 | 17.7 | 0.00 | 0.00 | 0.00 | 35 | 1012.8 |
| 20260508172817 | 18 | 112 | 8.0 | 17.7 | 0.00 | 0.00 | 0.00 | 34 | 1012.8 |
| 20260508172329 | 18 | 163 | 8.0 | 20.9 | 0.00 | 0.00 | 0.00 | 39 | 1012.8 |
| 20260508171821 | 17 | 315 | 9.7 | 20.9 | 0.00 | 0.00 | 0.00 | 37 | 1012.7 |
| 20260508171314 | 17 | 63 | 4.8 | 16.1 | 0.00 | 0.00 | 0.00 | 42 | 1012.9 |
| 20260508170826 | 17 | 136 | 6.4 | 20.9 | 0.00 | 0.00 | 0.00 | 39 | 1012.9 |
| 20260508170339 | 17 | 279 | 6.4 | 20.9 | 0.00 | 0.00 | 0.00 | 38 | 1013.0 |
| 20260508165813 | 17 | 315 | 9.7 | 25.7 | 0.00 | 0.00 | 0.00 | 36 | 1013.0 |
| 20260508165345 | 17 | 146 | 11.3 | 25.7 | 0.00 | 0.00 | 0.00 | 39 | 1013.0 |
| 20260508164816 | 16 | 42 | 6.4 | 17.7 | 0.00 | 0.00 | 0.00 | 42 | 1013.0 |
| 20260508164348 | 16 | 51 | 4.8 | 17.7 | 0.00 | 0.00 | 0.00 | 38 | 1013.2 |
| 20260508163819 | 16 | 133 | 3.2 | 17.7 | 0.00 | 0.00 | 0.00 | 41 | 1013.3 |
| 20260508163331 | 16 | 157 | 8.0 | 20.9 | 0.00 | 0.00 | 0.00 | 40 | 1013.4 |
| 20260508162824 | 16 | 156 | 8.0 | 20.9 | 0.00 | 0.00 | 0.00 | 41 | 1013.4 |
| 20260508162337 | 16 | 153 | 11.3 | 22.5 | 0.00 | 0.00 | 0.00 | 40 | 1013.4 |
| 20260508161848 | 16 | 171 | 12.9 | 22.5 | 0.00 | 0.00 | 0.00 | 40 | 1013.5 |
| 20260508161319 | 16 | 36 | 4.8 | 14.5 | 0.00 | 0.00 | 0.00 | 42 | 1013.7 |
| 20260508160830 | 16 | 130 | 6.4 | 14.5 | 0.00 | 0.00 | 0.00 | 43 | 1013.6 |
| 20260508160326 | 16 | 175 | 6.4 | 22.5 | 0.00 | 0.00 | 0.00 | 46 | 1013.7 |
| 20260508155817 | 16 | 130 | 4.8 | 12.9 | 0.00 | 0.00 | 0.00 | 45 | 1013.8 |
| 20260508155329 | 16 | 163 | 4.8 | 12.9 | 0.00 | 0.00 | 0.00 | 44 | 1013.8 |
| 20260508154820 | 16 | 186 | 4.8 | 17.7 | 0.00 | 0.00 | 0.00 | 41 | 1013.9 |
| 20260508154333 | 16 | 140 | 4.8 | 19.3 | 0.00 | 0.00 | 0.00 | 41 | 1013.8 |
| 20260508153825 | 16 | 178 | 9.7 | 19.3 | 0.00 | 0.00 | 0.00 | 42 | 1013.9 |
| 20260508153316 | 16 | 128 | 9.7 | 19.3 | 0.00 | 0.00 | 0.00 | 44 | 1013.9 |
| 20260508152829 | 16 | 180 | 9.7 | 27.4 | 0.00 | 0.00 | 0.00 | 46 | 1013.9 |
| 20260508152324 | 16 | 311 | 17.7 | 27.4 | 0.00 | 0.00 | 0.00 | 41 | 1013.7 |
| 20260508151815 | 16 | 142 | 8.0 | 17.7 | 0.00 | 0.00 | 0.00 | 43 | 1013.8 |
| 20260508151328 | 16 | 159 | 9.7 | 19.3 | 0.00 | 0.00 | 0.00 | 43 | 1013.8 |
| 20260508150820 | 16 | 32 | 8.0 | 20.9 | 0.00 | 0.00 | 0.00 | 44 | 1013.9 |
| 20260508150333 | 16 | 291 | 8.0 | 19.3 | 0.00 | 0.00 | 0.00 | 45 | 1013.9 |
| 20260508145822 | 15 | 137 | 8.0 | 20.9 | 0.00 | 0.00 | 0.00 | 45 | 1014.0 |
| 20260508145313 | 15 | 96 | 8.0 | 20.9 | 0.00 | 0.00 | 0.00 | 42 | 1014.1 |
| 20260508144847 | 15 | 149 | 6.4 | 20.9 | 0.00 | 0.00 | 0.00 | 43 | 1014.1 |
| 20260508144317 | 15 | 312 | 9.7 | 20.9 | 0.00 | 0.00 | 0.00 | 43 | 1014.1 |
| 20260508143814 | 15 | 173 | 4.8 | 17.7 | 0.00 | 0.00 | 0.00 | 45 | 1014.1 |
| 20260508143327 | 15 | 313 | 6.4 | 17.7 | 0.00 | 0.00 | 0.00 | 43 | 1014.2 |
| 20260508142818 | 15 | 171 | 6.4 | 16.1 | 0.00 | 0.00 | 0.00 | 45 | 1014.1 |
| 20260508142330 | 15 | 161 | 8.0 | 19.3 | 0.00 | 0.00 | 0.00 | 45 | 1014.0 |
| 20260508141822 | 14 | 150 | 11.3 | 19.3 | 0.00 | 0.00 | 0.00 | 44 | 1014.1 |
| 20260508141334 | 14 | 132 | 12.9 | 20.9 | 0.00 | 0.00 | 0.00 | 44 | 1014.1 |
| 20260508140846 | 14 | 212 | 11.3 | 20.9 | 0.00 | 0.00 | 0.00 | 42 | 1014.1 |
| 20260508140317 | 14 | 190 | 6.4 | 17.7 | 0.00 | 0.00 | 0.00 | 47 | 1014.2 |
| 20260508135827 | 14 | 194 | 8.0 | 17.7 | 0.00 | 0.00 | 0.00 | 47 | 1014.2 |
| 20260508135323 | 14 | 146 | 9.7 | 19.3 | 0.00 | 0.00 | 0.00 | 46 | 1014.2 |
| 20260508134835 | 13 | 161 | 9.7 | 17.7 | 0.00 | 0.00 | 0.00 | 47 | 1014.3 |
| 20260508134327 | 13 | 128 | 8.0 | 17.7 | 0.00 | 0.00 | 0.00 | 47 | 1014.2 |
| 20260508133818 | 13 | 180 | 11.3 | 19.3 | 0.00 | 0.00 | 0.00 | 46 | 1014.3 |
| 20260508133330 | 13 | 177 | 9.7 | 14.5 | 0.00 | 0.00 | 0.00 | 51 | 1014.3 |
| 20260508132822 | 13 | 182 | 9.7 | 14.5 | 0.00 | 0.00 | 0.00 | 48 | 1014.3 |
| 20260508132315 | 13 | 175 | 9.7 | 19.3 | 0.00 | 0.00 | 0.00 | 47 | 1014.3 |
| 20260508131827 | 12 | 166 | 11.3 | 17.7 | 0.00 | 0.00 | 0.00 | 53 | 1014.3 |
| 20260508131319 | 12 | 183 | 11.3 | 17.7 | 0.00 | 0.00 | 0.00 | 49 | 1014.4 |
| 20260508130814 | 12 | 180 | 9.7 | 16.1 | 0.00 | 0.00 | 0.00 | 51 | 1014.4 |
| 20260508130327 | 12 | 169 | 8.0 | 16.1 | 0.00 | 0.00 | 0.00 | 51 | 1014.4 |
| 20260508125817 | 12 | 148 | 8.0 | 16.1 | 0.00 | 0.00 | 0.00 | 53 | 1014.4 |
| 20260508125330 | 11 | 186 | 8.0 | 16.1 | 0.00 | 0.00 | 0.00 | 54 | 1014.4 |
| 20260508124823 | 11 | 166 | 9.7 | 17.7 | 0.00 | 0.00 | 0.00 | 55 | 1014.4 |
| 20260508124316 | 11 | 167 | 8.0 | 19.3 | 0.00 | 0.00 | 0.00 | 55 | 1014.5 |
| 20260508123848 | 10 | 182 | 8.0 | 19.3 | 0.00 | 0.00 | 0.00 | 57 | 1014.5 |
| 20260508123319 | 10 | 178 | 8.0 | 17.7 | 0.00 | 0.00 | 0.00 | 57 | 1014.5 |
| 20260508122852 | 10 | 165 | 9.7 | 16.1 | 0.00 | 0.00 | 0.00 | 59 | 1014.5 |
| 20260508122327 | 9 | 178 | 8.0 | 14.5 | 0.00 | 0.00 | 0.00 | 60 | 1014.4 |
| 20260508121818 | 9 | 179 | 8.0 | 12.9 | 0.00 | 0.00 | 0.00 | 60 | 1014.5 |
| 20260508121331 | 8 | 173 | 8.0 | 17.7 | 0.00 | 0.00 | 0.00 | 59 | 1014.5 |
| 20260508120823 | 8 | 167 | 9.7 | 19.3 | 0.00 | 0.00 | 0.00 | 57 | 1014.4 |
| 20260508120313 | 8 | 168 | 8.0 | 19.3 | 0.00 | 0.00 | 0.00 | 58 | 1014.4 |
| 20260508115823 | 8 | 169 | 9.7 | 14.5 | 0.00 | 0.00 | 0.00 | 58 | 1014.4 |
| 20260508115315 | 8 | 180 | 9.7 | 17.7 | 0.00 | 0.00 | 0.00 | 58 | 1014.4 |
| 20260508114828 | 8 | 169 | 8.0 | 17.7 | 0.00 | 0.00 | 0.00 | 59 | 1014.3 |
| 20260508114324 | 8 | 142 | 6.4 | 16.1 | 0.00 | 0.00 | 0.00 | 60 | 1014.3 |
| 20260508113815 | 8 | 156 | 8.0 | 16.1 | 0.00 | 0.00 | 0.00 | 58 | 1014.2 |
| 20260508113327 | 8 | 167 | 8.0 | 12.9 | 0.00 | 0.00 | 0.00 | 59 | 1014.2 |
| 20260508112819 | 8 | 167 | 3.2 | 12.9 | 0.00 | 0.00 | 0.00 | 60 | 1014.2 |
| 20260508112332 | 8 | 170 | 6.4 | 12.9 | 0.00 | 0.00 | 0.00 | 59 | 1014.1 |
| 20260508111824 | 8 | 172 | 6.4 | 9.7 | 0.00 | 0.00 | 0.00 | 59 | 1014.1 |
| 20260508111316 | 8 | 172 | 6.4 | 12.9 | 0.00 | 0.00 | 0.00 | 60 | 1014.0 |
| 20260508110827 | 7 | 178 | 8.0 | 12.9 | 0.00 | 0.00 | 0.00 | 60 | 1013.9 |
| 20260508110323 | 7 | 190 | 6.4 | 9.7 | 0.00 | 0.00 | 0.00 | 61 | 1013.8 |
| 20260508105813 | 7 | 157 | 6.4 | 9.7 | 0.00 | 0.00 | 0.00 | 61 | 1013.8 |
| 20260508105326 | 7 | 175 | 6.4 | 12.9 | 0.00 | 0.00 | 0.00 | 62 | 1013.8 |
| 20260508104837 | 7 | 178 | 6.4 | 11.3 | 0.00 | 0.00 | 0.00 | 63 | 1013.7 |
| 20260508104348 | 7 | 165 | 6.4 | 9.7 | 0.00 | 0.00 | 0.00 | 63 | 1013.7 |
| 20260508103819 | 7 | 178 | 6.4 | 9.7 | 0.00 | 0.00 | 0.00 | 63 | 1013.5 |
| 20260508103331 | 6 | 180 | 6.4 | 11.3 | 0.00 | 0.00 | 0.00 | 63 | 1013.6 |
| 20260508102823 | 6 | 170 | 6.4 | 11.3 | 0.00 | 0.00 | 0.00 | 62 | 1013.6 |
| 20260508102315 | 7 | 175 | 6.4 | 11.3 | 0.00 | 0.00 | 0.00 | 62 | 1013.4 |
| 20260508101828 | 7 | 163 | 4.8 | 11.3 | 0.00 | 0.00 | 0.00 | 62 | 1013.4 |
| 20260508101323 | 7 | 172 | 4.8 | 9.7 | 0.00 | 0.00 | 0.00 | 61 | 1013.3 |
| 20260508100816 | 7 | 169 | 6.4 | 11.3 | 0.00 | 0.00 | 0.00 | 60 | 1013.2 |
| 20260508100348 | 7 | 169 | 6.4 | 9.7 | 0.00 | 0.00 | 0.00 | 60 | 1013.2 |
| 20260508095815 | 7 | 167 | 4.8 | 9.7 | 0.00 | 0.00 | 0.00 | 60 | 1013.2 |
| 20260508095327 | 7 | 169 | 4.8 | 9.7 | 0.00 | 0.00 | 0.00 | 60 | 1013.2 |
| 20260508094818 | 7 | 163 | 4.8 | 9.7 | 0.00 | 0.00 | 0.00 | 60 | 1013.3 |
| 20260508094331 | 7 | 169 | 6.4 | 9.7 | 0.00 | 0.00 | 0.00 | 60 | 1013.3 |
| 20260508093823 | 7 | 169 | 4.8 | 9.7 | 0.00 | 0.00 | 0.00 | 60 | 1013.4 |
| 20260508093319 | 7 | 168 | 6.4 | 9.7 | 0.00 | 0.00 | 0.00 | 60 | 1013.4 |
| 20260508092831 | 7 | 171 | 1.6 | 6.4 | 0.00 | 0.00 | 0.00 | 59 | 1013.4 |
| 20260508092324 | 7 | 168 | 3.2 | 8.0 | 0.00 | 0.00 | 0.00 | 59 | 1013.3 |
| 20260508091835 | 7 | 169 | 3.2 | 8.0 | 0.00 | 0.00 | 0.00 | 59 | 1013.2 |
| 20260508091326 | 7 | 180 | 1.6 | 4.8 | 0.00 | 0.00 | 0.00 | 59 | 1013.1 |
| 20260508090817 | 7 | 171 | 3.2 | 8.0 | 0.00 | 0.00 | 0.00 | 58 | 1013.1 |
| 20260508090329 | 7 | 169 | 3.2 | 8.0 | 0.00 | 0.00 | 0.00 | 59 | 1013.2 |
| 20260508085819 | 7 | 163 | 3.2 | 8.0 | 0.00 | 0.00 | 0.00 | 59 | 1013.0 |
| 20260508085332 | 7 | 175 | 3.2 | 8.0 | 0.00 | 0.00 | 0.00 | 59 | 1013.0 |
| 20260508084827 | 7 | 165 | 3.2 | 6.4 | 0.00 | 0.00 | 0.00 | 59 | 1013.0 |
| 20260508084319 | 7 | 158 | 3.2 | 4.8 | 0.00 | 0.00 | 0.00 | 59 | 1012.9 |
| 20260508083831 | 7 | 146 | 1.6 | 3.2 | 0.00 | 0.00 | 0.00 | 59 | 1012.9 |
| 20260508083323 | 7 | 146 | 0.0 | 3.2 | 0.00 | 0.00 | 0.00 | 59 | 1012.8 |
| 20260508082835 | 7 | 146 | 0.0 | 3.2 | 0.00 | 0.00 | 0.00 | 59 | 1012.8 |
| 20260508082325 | 7 | 56 | 0.0 | 1.6 | 0.00 | 0.00 | 0.00 | 59 | 1012.7 |
| 20260508081817 | 7 | 45 | 0.0 | 1.6 | 0.00 | 0.00 | 0.00 | 59 | 1012.6 |
| 20260508081329 | 7 | 48 | 0.0 | 3.2 | 0.00 | 0.00 | 0.00 | 59 | 1012.7 |
| 20260508080820 | 7 | 48 | 0.0 | 3.2 | 0.00 | 0.00 | 0.00 | 58 | 1012.5 |
| 20260508080316 | 7 | 286 | 1.6 | 3.2 | 0.00 | 0.00 | 0.00 | 58 | 1012.6 |
| 20260508075827 | 7 | 294 | 1.6 | 6.4 | 0.00 | 0.00 | 0.00 | 58 | 1012.6 |
| 20260508075338 | 7 | 306 | 1.6 | 6.4 | 0.00 | 0.00 | 0.00 | 58 | 1012.7 |
| 20260508074829 | 7 | 284 | 3.2 | 6.4 | 0.00 | 0.00 | 0.00 | 58 | 1012.7 |
| 20260508074321 | 7 | 288 | 1.6 | 6.4 | 0.00 | 0.00 | 0.00 | 58 | 1012.8 |
| 20260508073316 | 8 | 281 | 1.6 | 6.4 | 0.00 | 0.00 | 0.00 | 58 | 1012.8 |
| 20260508072828 | 8 | 259 | 1.6 | 9.7 | 0.00 | 0.00 | 0.00 | 57 | 1012.8 |
| 20260508072320 | 8 | 273 | 1.6 | 11.3 | 0.00 | 0.00 | 0.00 | 57 | 1012.8 |
| 20260508071816 | 8 | 282 | 4.8 | 11.3 | 0.00 | 0.00 | 0.00 | 57 | 1012.7 |
| 20260508071327 | 8 | 279 | 4.8 | 11.3 | 0.00 | 0.00 | 0.00 | 57 | 1012.8 |
| 20260508070818 | 8 | 282 | 4.8 | 12.9 | 0.00 | 0.00 | 0.00 | 57 | 1012.7 |
| 20260508070351 | 8 | 281 | 6.4 | 11.3 | 0.00 | 0.00 | 0.00 | 57 | 1012.7 |
| 20260508065819 | 8 | 258 | 1.6 | 8.0 | 0.00 | 0.00 | 0.00 | 57 | 1012.7 |